Location: Cantaing
(50.1487°N, 3.1675°E)
Time: 15:17:45
(UTC+00:00)

Cosmos 1470 Rocket - Visible Passes

Search period start: 11 April 2026 00:00
Search period end: 21 April 2026 00:00
Orbit: 596 x 626 km, 82.5° (Epoch: 11 April)

Date Brightness Start Highest point End Pass type
(mag) Time Alt. Az. Time Alt. Az. Time Alt. Az.
11 Apr 3.9 19:53:26 10° SSW 19:57:48 67° WNW 20:02:09 10° N visible
12 Apr 5.0 20:08:40 10° SW 20:12:48 40° WNW 20:16:56 10° N visible
13 Apr 5.9 20:24:13 10° SW 20:27:53 26° WNW 20:31:32 10° NNW visible
14 Apr 6.6 20:40:12 10° WSW 20:43:02 17° WNW 20:45:53 10° NNW visible
15 Apr 3.7 19:15:25 10° SSW 19:19:47 78° W 19:24:09 10° N visible
15 Apr 7.0 20:57:11 10° WNW 20:58:17 11° WNW 20:59:23 10° NW visible
16 Apr 4.8 19:30:33 10° SSW 19:34:45 47° WNW 19:38:58 10° N visible
17 Apr 5.8 19:45:59 10° SW 19:49:48 29° WNW 19:53:38 10° N visible
18 Apr 7.0 04:11:40 10° NNE 04:14:06 15° ENE 04:16:30 10° E visible
18 Apr 6.6 20:01:48 10° WSW 20:04:56 19° WNW 20:08:04 10° NNW visible
19 Apr 7.0 20:18:18 10° W 20:20:10 12° WNW 20:22:01 10° NW visible
